Wind_Speed
7 5 3 2 0 0 6 4 4 4 2 4 5 7 5 2 5 3 4 4 4 4 2 1 2 3 5 6 8 7 4 3 2 1 2 2 2 2 2 2 2 2 3 3 3 4 4 5 6
8 5 2 3 3 0 5 6 8 5 5 3 8 6 1 7 4 0 2 4 4 5 3 2 2 3 4 6 6 5 3 3 3 3 2 3 3 3 3 3 3 3 3 3 3 4 5 5 6
8 6 4 4 8 11 9 8 9 6 3 6 5 7 2 4 5 7 5 5 5 6 5 3 4 5 6 6 4 3 3 3 3 3 4 4 5 5 5 5 4 4 4 4 5 5 5 5 5
8 9 5 10 12 3 6 9 5 6 5 8 6 2 3 5 6 5 5 5 5 7 4 4 4 4 4 2 1 2 2 1 2 3 3 4 5 6 7 7 7 7 7 6 6 6 7 7 6
9 9 9 13 5 5 6 8 6 7 2 5 11 5 4 4 8 7 7 7 6 8 5 3 2 3 2 0 2 2 2 2 2 2 3 3 4 4 4 5 6 6 7 7 8 9 9 9 9
12 10 10 17 10 3 6 8 7 3 3 3 5 5 0 6 8 7 7 6 6 9 1 2 3 3 3 2 1 1 1 2 1 2 3 4 5 5 5 5 5 4 4 4 5 7 7 9 10
14 11 15 17 11 8 8 8 8 7 4 3 5 6 10 12 9 9 7 6 8 8 4 3 4 5 5 5 5 4 4 6 7 7 7 8 8 8 7 8 8 9 10 11 11 12 11 9 9
15 13 13 17 12 15 13 12 13 9 10 6 1 2 13 13 12 11 7 7 7 6 7 7 7 7 5 5 6 8 9 9 10 11 13 12 12 13 12 13 14 13 14 15 15 15 14 13 11
17 16 12 13 12 10 14 11 12 10 9 7 5 7 11 13 13 12 7 3 5 5 9 16 10 8 6 9 10 12 13 14 14 14 15 14 13 12 13 13 13 13 14 14 14 13 13 14 13
20 19 16 10 11 7 12 11 11 10 9 8 9 9 11 13 14 11 6 13 11 12 13 15 13 13 14 10 12 13 15 16 15 15 14 13 12 12 11 12 11 11 11 11 11 12 11 12 13
20 22 14 13 9 12 11 12 13 9 9 7 12 15 13 14 15 13 14 9 6 13 13 21 11 14 15 14 15 15 16 14 14 14 13 12 11 10 10 9 10 9 9 9 9 9 10 11 11
24 12 18 12 18 14 14 12 14 10 10 10 11 18 19 18 18 13 11 8 13 20 23 21 15 20 17 16 17 17 16 15 14 12 11 11 10 10 9 9 8 8 8 9 11 11 13 14 15
23 20 10 16 13 15 14 15 11 11 12 11 14 18 18 18 14 10 8 12 21 29 31 25 20 20 20 19 18 18 18 16 14 13 11 10 10 9 9 8 9 10 11 12 13 15 17 18 19
14 21 11 17 18 16 15 16 13 12 14 11 14 16 18 15 11 12 19 27 30 28 22 21 20 21 20 19 18 18 19 17 14 13 12 10 9 9 9 10 11 13 15 16 18 20 22 23 24
18 18 16 19 14 13 17 13 14 11 13 11 15 17 16 13 13 16 19 20 24 24 20 19 20 21 22 19 18 19 17 15 14 13 12 11 11 11 12 13 15 17 19 20 23 25 26 27 27
23 17 7 13 16 16 13 8 7 13 12 16 18 18 15 15 16 19 21 22 21 25 19 18 18 21 21 18 20 18 16 15 14 13 12 12 13 14 15 17 18 21 23 25 28 29 30 29 29
18 15 19 11 14 15 14 8 9 11 18 18 19 15 20 20 19 20 22 23 24 25 21 16 18 21 21 19 19 17 16 15 15 14 14 14 15 16 18 21 23 25 28 30 33 34 33 32 31
16 21 20 25 25 21 21 28 19 17 24 23 20 18 17 24 23 21 24 25 25 24 22 17 19 22 20 20 18 17 16 16 16 15 16 16 17 21 24 26 28 30 32 34 36 37 35 35 35
18 18 17 21 13 14 13 20 16 14 19 25 22 20 18 22 25 23 27 27 25 24 23 20 20 21 20 19 18 17 18 18 17 18 19 21 23 25 27 29 31 33 35 37 38 40 39 36 37
20 13 15 10 16 13 15 21 24 21 20 26 30 28 18 18 25 28 30 26 26 23 22 22 21 20 20 19 17 18 20 19 19 20 22 24 26 28 30 32 34 36 38 38 40 42 43 40 37
19 13 11 13 8 9 15 21 16 14 22 25 23 21 20 18 22 27 29 26 24 21 21 22 22 19 21 17 18 18 20 20 21 25 27 27 28 31 34 35 37 39 41 43 44 45 44 43 40
15 15 14 9 10 11 8 5 10 9 21 13 19 16 7 7 20 24 27 26 19 19 21 19 21 22 19 18 17 17 19 21 24 29 32 33 35 37 39 40 42 44 45 47 48 48 45 45 44
12 13 14 15 13 11 13 6 4 12 9 14 22 10 8 7 9 22 26 26 19 20 20 18 20 21 20 17 17 20 22 25 27 30 34 36 38 41 44 46 48 49 50 51 52 51 47 45 45
14 11 10 9 8 9 24 19 2 13 18 21 18 13 11 9 6 18 22 21 18 18 18 18 18 19 20 22 24 26 28 30 33 35 39 41 42 44 47 49 51 52 54 55 55 51 49 46 45
11 10 6 3 5 3 9 12 1 13 12 14 13 11 8 6 4 10 13 15 14 16 16 19 21 21 24 26 29 32 34 36 35 36 39 42 43 46 48 50 52 54 55 56 52 51 50 48 47
16 14 7 3 3 4 7 6 9 11 9 9 10 9 7 5 4 6 7 9 12 15 18 21 23 24 26 30 33 35 35 36 36 38 39 43 47 50 51 52 54 54 53 52 51 51 49 48 48
12 11 10 2 12 4 7 7 6 10 9 9 9 8 7 6 6 6 8 10 12 14 16 20 23 27 29 31 31 33 36 39 42 44 46 49 49 49 50 50 51 51 51 50 49 49 48 48 48
11 11 4 5 2 4 12 9 9 13 8 8 8 8 8 7 8 9 10 12 15 18 23 26 27 28 28 29 33 37 41 44 47 50 51 49 48 48 50 50 50 50 50 48 48 48 49 49 48
14 12 7 5 2 1 4 5 6 7 7 7 8 7 9 11 13 15 16 19 23 26 25 24 25 28 32 37 38 42 45 46 46 45 45 46 47 48 48 48 49 48 48 48 49 48 48 48 48
13 10 9 4 4 5 2 1 8 11 9 10 9 9 12 16 18 19 22 25 27 25 24 28 31 34 37 42 43 42 41 41 42 43 43 43 45 46 47 47 47 47 47 47 47 48 47 47 47
Wind_Direction
198 195 200 214 227 225 108 135 109 96 159 111 93 92 42 150 178 216 316 319 340 27 16 312 276 239 242 266 276 286 256 247 264 306 338 358 0 6 15 29 29 24 17 16 12 11 5 3 9
204 210 213 269 228 133 99 122 151 174 175 131 96 79 297 40 79 4 350 333 335 320 63 326 229 244 263 276 272 268 261 256 262 274 292 305 307 310 316 322 326 326 330 330 336 342 351 356 360
204 207 230 297 273 196 168 167 192 158 129 104 37 125 54 32 359 21 6 339 333 327 346 318 257 265 281 274 271 281 289 286 279 282 286 288 289 291 293 298 301 304 303 306 313 317 323 332 341
212 201 225 256 287 359 166 182 174 146 119 122 136 327 33 0 1 7 343 330 331 334 309 302 279 279 281 281 30 47 32 356 326 309 304 300 296 292 289 284 281 282 286 290 292 296 301 308 314
205 211 217 250 268 160 142 189 151 115 121 93 125 231 336 348 346 344 334 334 325 342 335 302 263 243 243 182 85 77 62 42 30 16 4 349 337 331 321 316 302 292 287 284 284 285 286 286 289
206 207 245 258 288 164 158 179 136 152 135 123 77 278 312 352 334 332 316 311 283 305 283 248 238 223 217 195 248 262 288 301 315 300 309 310 312 315 317 314 303 299 293 305 307 309 307 301 291
222 203 252 272 265 197 187 177 174 178 175 272 135 236 289 322 328 325 302 284 288 297 300 224 233 233 237 253 254 254 261 269 269 275 275 282 292 293 288 280 280 282 291 293 296 297 295 295 300
220 220 244 256 212 190 189 174 197 175 211 226 151 248 278 316 326 320 309 295 298 301 306 338 267 254 255 244 252 265 277 284 281 277 276 275 284 279 277 277 280 284 282 287 290 292 292 288 286
219 224 236 257 245 219 205 216 214 216 224 230 247 266 282 313 313 306 301 261 268 322 288 264 284 271 247 273 279 277 279 283 287 283 280 281 280 277 280 279 280 281 284 287 290 291 294 292 287
223 228 224 265 237 232 224 224 222 222 240 251 264 280 281 299 300 293 231 197 211 247 252 260 289 269 265 270 284 278 283 288 288 286 283 284 286 285 283 284 285 285 286 288 290 291 292 292 293
224 226 222 273 228 215 231 200 233 226 244 265 297 287 288 292 293 281 206 263 306 250 269 249 274 259 267 266 277 281 284 285 290 287 288 289 288 287 288 286 284 286 292 296 296 295 295 295 293
220 205 242 268 236 231 231 205 234 242 216 249 264 280 295 293 288 273 220 186 235 233 255 261 257 271 284 284 286 290 294 297 293 288 283 281 284 286 285 285 292 299 301 302 302 303 302 299 297
231 213 227 236 230 229 220 213 226 231 240 268 279 283 291 290 279 245 191 202 229 243 250 261 258 270 278 283 288 295 298 295 286 281 280 280 281 282 287 292 297 301 304 305 305 305 303 302 300
219 230 241 244 234 213 214 216 230 249 256 272 287 289 291 283 257 221 199 214 228 254 262 261 267 273 277 283 291 291 289 283 279 278 278 277 277 282 289 296 300 303 306 307 306 306 305 302 300
205 188 224 243 230 216 204 219 244 227 265 276 296 293 289 281 262 232 243 250 252 269 276 271 275 279 283 292 288 284 279 275 273 272 273 274 280 287 295 300 303 303 303 304 306 307 305 303 300
215 211 216 230 223 218 218 226 306 239 267 290 300 292 284 283 271 254 262 262 257 275 279 276 272 274 285 287 284 279 271 268 267 268 269 275 281 289 295 297 299 301 302 304 306 306 305 303 301
216 214 215 214 213 212 211 236 301 274 296 296 293 284 285 282 268 257 264 260 259 270 275 277 272 277 285 287 283 273 269 267 267 267 270 277 286 292 296 299 302 304 305 307 308 309 307 306 304
206 214 224 225 239 226 245 267 270 270 288 298 281 277 252 271 275 259 250 255 257 267 273 272 274 280 288 288 282 272 270 269 269 272 278 283 290 297 300 302 304 305 307 308 308 307 306 307 305
220 219 223 224 226 239 251 233 240 267 289 281 280 277 247 262 270 268 255 255 256 262 271 272 274 281 287 287 281 272 269 269 272 277 283 291 297 298 302 305 307 308 309 308 308 308 307 306 306
221 220 227 212 223 247 248 262 256 262 272 267 275 285 270 227 255 256 266 262 255 257 265 274 277 285 293 285 275 270 269 274 274 279 285 292 298 302 304 306 308 308 306 306 309 310 307 306 306
222 213 219 211 235 255 252 270 252 218 260 268 267 269 268 248 237 254 265 272 256 251 259 272 279 286 290 277 274 275 278 281 286 289 293 299 299 300 303 304 304 305 306 306 308 311 308 306 306
210 219 224 198 218 238 242 269 271 263 235 259 270 303 285 247 217 244 258 273 260 247 253 261 276 286 281 278 277 274 274 279 284 288 292 298 302 302 301 302 303 304 305 307 308 310 308 307 306
212 203 217 229 240 250 242 240 259 185 192 225 270 298 301 301 234 224 246 263 261 243 255 260 272 280 281 277 276 279 282 285 289 292 294 296 296 298 300 302 302 304 305 306 307 307 305 303 301
206 196 187 203 214 252 246 225 260 179 195 229 272 294 296 291 263 216 238 255 256 251 255 269 276 277 274 278 280 283 283 286 290 292 293 295 296 298 299 299 300 302 303 304 304 303 302 300 298
165 170 165 191 185 239 168 174 186 219 232 259 276 283 284 290 264 234 249 262 261 263 270 271 275 276 277 279 282 283 287 289 289 287 288 291 295 296 295 295 296 297 299 300 301 300 300 299 298
196 196 256 259 164 134 181 220 203 245 258 272 270 275 283 284 267 261 257 261 265 273 274 276 281 281 278 278 283 288 288 287 287 287 290 295 295 293 292 293 294 296 298 299 299 298 298 298 297
187 218 228 292 289 298 212 173 204 251 258 259 264 269 274 268 262 270 277 275 276 281 283 281 279 278 280 283 284 284 287 289 289 289 292 296 295 293 293 294 296 296 296 297 297 297 297 296 296
184 182 175 194 240 223 244 171 191 200 211 240 251 252 261 274 284 281 274 273 276 279 283 284 279 281 283 286 290 293 294 293 292 294 295 296 295 294 294 295 296 296 296 297 297 297 298 297 296
217 212 201 207 221 7 336 82 76 210 240 242 267 271 274 276 276 276 280 285 289 291 286 281 282 283 287 289 292 294 292 292 293 294 295 295 295 296 296 297 297 297 298 299 299 298 297 297 296
189 200 223 211 185 210 318 148 140 201 238 253 277 270 274 278 279 284 290 290 292 293 288 288 288 290 292 298 301 298 296 296 296 295 295 295 295 295 296 297 298 299 300 299 298 298 299 297 294
Height
3176 3176 3177 3177 3180 3177 3177 3179 3179 3180 3180 3180 3180 3179 3179 3178 3178 3181 3178 3177 3176 3176 3175 3175 3174 3174 3175 3175 3174 3175 3175 3175 3175 3175 3175 3175 3175 3175 3174 3174 3174 3174 3173 3173 3173 3172 3172 3172 3172
3176 3177 3177 3176 3177 3176 3178 3178 3178 3179 3179 3180 3180 3182 3179 3178 3178 3178 3178 3177 3176 3174 3176 3175 3175 3175 3175 3174 3174 3174 3174 3174 3175 3175 3175 3175 3175 3175 3175 3174 3174 3174 3174 3173 3173 3173 3172 3172 3172
3175 3176 3178 3176 3174 3176 3175 3177 3176 3177 3178 3179 3180 3180 3180 3179 3178 3178 3177 3177 3176 3174 3174 3175 3175 3175 3174 3174 3173 3173 3173 3173 3174 3174 3174 3174 3174 3174 3174 3174 3174 3174 3174 3173 3173 3173 3172 3172 3172
3174 3176 3177 3175 3174 3174 3175 3175 3176 3177 3177 3178 3180 3179 3179 3179 3178 3179 3177 3176 3175 3174 3174 3174 3174 3174 3174 3174 3173 3173 3173 3173 3173 3173 3173 3173 3173 3173 3173 3173 3173 3173 3173 3173 3172 3172 3172 3171 3171
3173 3175 3174 3173 3175 3176 3175 3175 3176 3178 3178 3178 3179 3178 3179 3179 3178 3178 3176 3175 3173 3173 3174 3173 3173 3174 3174 3174 3174 3173 3173 3173 3173 3173 3173 3173 3173 3172 3172 3172 3172 3172 3172 3171 3171 3171 3170 3170 3170
3171 3173 3173 3172 3175 3175 3175 3175 3177 3179 3179 3179 3179 3177 3179 3179 3177 3177 3176 3175 3173 3172 3173 3172 3173 3173 3174 3174 3174 3173 3173 3173 3173 3172 3172 3172 3172 3171 3171 3171 3171 3171 3170 3170 3170 3170 3169 3169 3169
3170 3171 3170 3171 3171 3175 3176 3176 3178 3180 3180 3179 3179 3178 3177 3178 3177 3176 3175 3174 3172 3170 3171 3172 3172 3172 3173 3173 3173 3173 3173 3172 3172 3171 3171 3171 3171 3170 3170 3169 3169 3169 3169 3169 3169 3169 3168 3168 3168
3169 3170 3169 3168 3170 3172 3173 3175 3176 3178 3178 3179 3179 3179 3175 3176 3175 3174 3174 3173 3172 3170 3170 3171 3171 3172 3172 3172 3172 3172 3171 3171 3170 3169 3169 3169 3168 3168 3168 3167 3167 3167 3167 3167 3166 3166 3166 3165 3165
3166 3168 3167 3167 3169 3169 3169 3172 3174 3175 3176 3177 3177 3177 3175 3174 3174 3173 3173 3173 3173 3172 3171 3170 3171 3170 3169 3170 3170 3170 3169 3169 3168 3167 3166 3166 3165 3165 3165 3165 3165 3165 3164 3164 3164 3163 3163 3162 3163
3162 3164 3165 3168 3164 3168 3168 3169 3172 3174 3174 3175 3175 3176 3174 3173 3173 3172 3172 3174 3174 3172 3171 3168 3170 3169 3168 3168 3168 3167 3167 3166 3165 3164 3163 3163 3162 3162 3163 3163 3163 3162 3162 3162 3161 3161 3161 3160 3159
3159 3161 3164 3165 3166 3168 3166 3168 3169 3171 3172 3172 3171 3172 3173 3172 3171 3171 3171 3171 3172 3171 3169 3169 3167 3166 3166 3166 3165 3165 3165 3164 3163 3161 3161 3160 3160 3160 3160 3160 3160 3160 3160 3160 3159 3159 3159 3158 3158
3155 3158 3163 3162 3162 3165 3165 3167 3167 3169 3170 3171 3172 3169 3169 3169 3169 3168 3169 3171 3171 3169 3168 3166 3164 3164 3163 3164 3163 3162 3161 3161 3160 3160 3159 3159 3158 3158 3158 3158 3158 3158 3158 3158 3157 3157 3156 3155 3155
3152 3154 3157 3157 3160 3162 3162 3164 3166 3167 3167 3169 3169 3167 3167 3166 3165 3166 3169 3172 3168 3166 3165 3166 3163 3161 3161 3161 3161 3159 3158 3158 3158 3158 3158 3157 3157 3157 3157 3156 3156 3156 3156 3155 3155 3154 3153 3152 3151
3149 3152 3155 3154 3157 3159 3160 3161 3163 3165 3165 3166 3166 3165 3164 3163 3163 3164 3167 3166 3163 3160 3163 3162 3160 3159 3159 3158 3158 3158 3157 3156 3156 3155 3155 3155 3155 3155 3155 3154 3154 3153 3153 3152 3151 3150 3149 3148 3147
3145 3149 3150 3153 3154 3154 3157 3159 3161 3161 3162 3163 3162 3162 3160 3161 3161 3161 3161 3160 3158 3157 3158 3157 3156 3156 3155 3156 3156 3155 3154 3153 3153 3153 3153 3153 3152 3152 3152 3152 3151 3150 3149 3148 3146 3145 3144 3142 3141
3143 3147 3148 3149 3151 3152 3155 3159 3157 3159 3161 3160 3159 3157 3158 3157 3157 3156 3156 3155 3153 3151 3153 3154 3154 3152 3152 3153 3151 3151 3151 3151 3151 3151 3151 3150 3150 3150 3149 3149 3148 3146 3145 3143 3141 3139 3138 3136 3134
3138 3141 3145 3147 3147 3147 3150 3153 3157 3157 3158 3157 3155 3155 3153 3153 3153 3152 3151 3151 3149 3147 3149 3151 3150 3148 3148 3149 3148 3148 3148 3148 3147 3147 3148 3147 3147 3146 3146 3144 3143 3141 3139 3136 3134 3132 3130 3128 3127
3135 3139 3142 3143 3143 3146 3147 3147 3147 3149 3155 3155 3153 3152 3151 3148 3148 3148 3146 3146 3145 3145 3146 3148 3147 3146 3146 3145 3144 3144 3144 3144 3144 3144 3144 3144 3144 3142 3141 3139 3137 3135 3133 3130 3127 3124 3123 3120 3117
3133 3134 3137 3139 3138 3142 3141 3144 3148 3152 3152 3150 3149 3148 3148 3146 3144 3143 3142 3142 3142 3142 3141 3144 3144 3143 3142 3142 3141 3141 3141 3141 3141 3141 3141 3139 3138 3137 3135 3133 3131 3128 3126 3123 3120 3117 3115 3115 3110
3129 3130 3133 3133 3139 3141 3140 3141 3143 3147 3147 3144 3142 3141 3141 3144 3141 3138 3137 3138 3138 3139 3138 3138 3139 3139 3139 3138 3138 3138 3138 3138 3138 3138 3136 3135 3133 3131 3130 3127 3125 3122 3119 3117 3114 3111 3107 3106 3104
3125 3127 3130 3133 3135 3137 3138 3137 3136 3136 3137 3139 3138 3136 3136 3137 3138 3134 3132 3133 3134 3135 3136 3135 3135 3137 3135 3136 3135 3136 3135 3134 3133 3131 3130 3130 3128 3126 3124 3121 3119 3116 3113 3110 3107 3104 3100 3096 3096
3122 3126 3128 3129 3132 3135 3135 3134 3132 3130 3132 3133 3131 3132 3132 3132 3133 3131 3129 3128 3130 3132 3132 3133 3133 3133 3133 3133 3132 3132 3131 3131 3129 3127 3125 3123 3121 3118 3116 3114 3112 3109 3105 3102 3099 3096 3092 3088 3084
3120 3122 3125 3128 3129 3132 3132 3134 3129 3127 3130 3130 3126 3130 3130 3129 3129 3128 3127 3126 3126 3127 3129 3131 3131 3131 3129 3129 3129 3128 3127 3126 3125 3122 3119 3117 3115 3111 3108 3106 3102 3099 3096 3092 3089 3086 3083 3080 3076
3117 3121 3123 3125 3128 3128 3124 3129 3127 3127 3126 3125 3125 3127 3126 3125 3125 3125 3125 3123 3124 3125 3126 3128 3128 3127 3126 3125 3124 3123 3123 3121 3119 3116 3112 3110 3107 3104 3100 3096 3092 3089 3085 3082 3079 3075 3072 3070 3067
3116 3119 3122 3126 3127 3124 3120 3122 3123 3124 3125 3125 3124 3123 3123 3122 3122 3121 3121 3121 3121 3122 3124 3124 3124 3123 3122 3121 3119 3117 3115 3114 3113 3109 3105 3102 3099 3096 3092 3087 3083 3079 3075 3071 3067 3063 3060 3057 3054
3113 3117 3116 3116 3117 3119 3121 3120 3118 3120 3121 3121 3120 3121 3120 3120 3120 3119 3120 3120 3120 3121 3121 3121 3120 3119 3117 3115 3113 3110 3108 3105 3103 3100 3097 3094 3090 3086 3082 3077 3073 3069 3064 3060 3056 3052 3048 3045 3042
3112 3113 3115 3114 3113 3115 3115 3116 3116 3116 3117 3117 3118 3118 3119 3118 3119 3119 3119 3119 3118 3118 3117 3116 3114 3112 3111 3108 3106 3104 3100 3097 3094 3091 3087 3083 3079 3074 3070 3065 3061 3057 3053 3048 3044 3040 3037 3033 3030
3109 3111 3114 3114 3115 3115 3107 3110 3111 3113 3114 3115 3115 3116 3117 3117 3117 3117 3116 3115 3114 3113 3112 3111 3109 3107 3105 3103 3100 3097 3093 3088 3083 3079 3074 3070 3066 3062 3058 3053 3049 3045 3040 3036 3032 3028 3024 3020 3017
3107 3108 3111 3111 3111 3111 3112 3113 3114 3113 3113 3113 3114 3115 3115 3115 3114 3113 3113 3111 3109 3108 3106 3105 3103 3101 3098 3095 3092 3087 3082 3078 3073 3069 3064 3060 3055 3050 3046 3042 3037 3032 3028 3023 3019 3015 3011 3006 3003
3104 3106 3109 3110 3111 3111 3112 3114 3113 3113 3113 3112 3113 3113 3112 3112 3111 3109 3107 3105 3103 3102 3101 3099 3096 3093 3090 3086 3083 3078 3073 3068 3063 3059 3054 3050 3045 3040 3035 3030 3025 3020 3015 3011 3006 3002 2998 2994 2990